Time,TemperatureF,DewpointF,PressureIn,WindDirection,WindDirectionDegrees,WindSpeedMPH,WindSpeedGustMPH,Humidity,HourlyPrecipIn,Conditions,Clouds,dailyrainin,SoftwareType,DateUTC
2013-01-29 00:01:00,21.7,20.3,30.13,SSE,161,2.0,3.0,94,0.00,,,0.00,meteohub,2013-01-29 05:01:00,
2013-01-29 00:02:00,21.7,20.3,30.13,SSE,161,2.0,3.0,94,0.00,,,0.00,meteohub,2013-01-29 05:02:00,
2013-01-29 00:03:00,21.6,20.1,30.13,SSE,161,0.0,3.0,94,0.00,,,0.00,meteohub,2013-01-29 05:03:00,
2013-01-29 00:04:00,21.6,20.1,30.13,SSE,161,0.0,3.0,94,0.00,,,0.00,meteohub,2013-01-29 05:04:00,
2013-01-29 00:09:00,21.6,20.1,30.13,SSE,161,0.0,3.0,94,0.00,,,0.00,meteohub,2013-01-29 05:09:00,
2013-01-29 00:14:00,21.6,20.3,30.13,SSE,161,0.0,3.0,95,0.00,,,0.00,meteohub,2013-01-29 05:14:00,
2013-01-29 00:19:00,21.6,20.3,30.13,SSE,161,0.0,3.0,95,0.00,,,0.00,meteohub,2013-01-29 05:19:00,
2013-01-29 00:24:00,21.6,20.3,30.13,SSE,161,0.0,1.0,95,0.00,,,0.00,meteohub,2013-01-29 05:24:00,
2013-01-29 00:29:00,21.6,20.3,30.13,SSE,161,0.0,0.0,95,0.00,,,0.00,meteohub,2013-01-29 05:29:00,
2013-01-29 00:34:00,21.6,20.3,30.13,SSE,161,0.0,0.0,95,0.00,,,0.00,meteohub,2013-01-29 05:34:00,
2013-01-29 00:39:00,21.6,20.3,30.14,SSE,161,0.0,0.0,95,0.00,,,0.00,meteohub,2013-01-29 05:39:00,
2013-01-29 00:44:00,21.7,20.5,30.14,SSE,161,0.0,1.0,95,0.00,,,0.00,meteohub,2013-01-29 05:44:00,
2013-01-29 00:49:00,21.7,20.3,30.14,SSE,161,0.0,1.0,94,0.00,,,0.00,meteohub,2013-01-29 05:49:00,
2013-01-29 00:54:00,21.6,20.1,30.14,SSE,161,0.0,1.0,94,0.00,,,0.00,meteohub,2013-01-29 05:54:00,
2013-01-29 00:59:00,21.6,20.1,30.14,SSE,161,0.0,0.0,94,0.00,,,0.00,meteohub,2013-01-29 05:59:00,
2013-01-29 01:04:00,21.6,20.3,30.14,SSE,161,0.0,0.0,95,0.00,,,0.00,meteohub,2013-01-29 06:04:00,
2013-01-29 01:09:00,21.6,20.3,30.14,SSE,161,0.0,0.0,95,0.00,,,0.00,meteohub,2013-01-29 06:09:00,
2013-01-29 01:14:00,21.6,20.3,30.14,SSE,161,0.0,0.0,95,0.00,,,0.00,meteohub,2013-01-29 06:14:00,
2013-01-29 01:19:00,21.7,20.5,30.14,SSE,161,1.0,0.0,95,0.00,,,0.00,meteohub,2013-01-29 06:19:00,
2013-01-29 01:24:00,21.7,20.5,30.14,SSE,161,0.0,1.0,95,0.00,,,0.00,meteohub,2013-01-29 06:24:00,
2013-01-29 01:29:00,21.7,20.5,30.14,SSE,161,0.0,2.0,95,0.00,,,0.00,meteohub,2013-01-29 06:29:00,
2013-01-29 01:34:00,21.7,20.5,30.14,SSE,161,0.0,2.0,95,0.00,,,0.00,meteohub,2013-01-29 06:34:00,
2013-01-29 01:39:00,21.9,20.7,30.14,SSE,161,0.0,2.0,95,0.00,,,0.00,meteohub,2013-01-29 06:39:00,
2013-01-29 01:44:00,22.1,20.8,30.14,SSE,161,0.0,1.0,95,0.00,,,0.00,meteohub,2013-01-29 06:44:00,
2013-01-29 01:49:00,22.3,21.0,30.15,SSE,161,1.0,1.0,95,0.00,,,0.00,meteohub,2013-01-29 06:49:00,
2013-01-29 01:54:00,22.5,21.2,30.15,SSE,161,0.0,1.0,95,0.00,,,0.00,meteohub,2013-01-29 06:54:00,
2013-01-29 01:59:00,22.6,21.4,30.16,SSE,161,0.0,1.0,95,0.00,,,0.00,meteohub,2013-01-29 06:59:00,
2013-01-29 02:04:00,22.6,21.4,30.16,SSE,161,0.0,1.0,95,0.00,,,0.00,meteohub,2013-01-29 07:04:00,
2013-01-29 02:09:00,22.6,21.4,30.17,SSE,161,0.0,1.0,95,0.00,,,0.00,meteohub,2013-01-29 07:09:00,
2013-01-29 02:14:00,22.6,21.4,30.17,SSE,161,0.0,1.0,95,0.00,,,0.00,meteohub,2013-01-29 07:14:00,
2013-01-29 02:19:00,22.8,21.6,30.17,SSE,161,0.0,1.0,95,0.00,,,0.00,meteohub,2013-01-29 07:19:00,
2013-01-29 02:24:00,22.8,21.6,30.17,SSE,161,0.0,1.0,95,0.00,,,0.00,meteohub,2013-01-29 07:24:00,
2013-01-29 02:29:00,22.8,21.6,30.17,SSE,161,0.0,0.0,95,0.00,,,0.00,meteohub,2013-01-29 07:29:00,
2013-01-29 02:34:00,22.8,21.6,30.17,SSE,161,2.0,0.0,95,0.00,,,0.00,meteohub,2013-01-29 07:34:00,
2013-01-29 02:39:00,22.6,21.4,30.16,SSE,164,1.0,3.0,95,0.00,,,0.00,meteohub,2013-01-29 07:39:00,
2013-01-29 02:44:00,22.3,21.0,30.16,SSE,167,0.0,3.0,95,0.00,,,0.00,meteohub,2013-01-29 07:44:00,
2013-01-29 02:49:00,22.3,21.0,30.17,SSE,167,0.0,3.0,95,0.00,,,0.00,meteohub,2013-01-29 07:49:00,
2013-01-29 02:54:00,22.3,21.0,30.17,SSE,167,0.0,3.0,95,0.00,,,0.00,meteohub,2013-01-29 07:54:00,
2013-01-29 02:59:00,22.3,21.0,30.17,SSE,167,0.0,3.0,95,0.00,,,0.00,meteohub,2013-01-29 07:59:00,
2013-01-29 03:04:00,22.5,21.2,30.17,SSE,167,0.0,0.0,95,0.00,,,0.00,meteohub,2013-01-29 08:04:00,
2013-01-29 03:09:00,22.5,21.2,30.17,SSE,167,0.0,0.0,95,0.00,,,0.00,meteohub,2013-01-29 08:09:00,
2013-01-29 03:14:00,22.6,21.4,30.17,SSE,167,0.0,0.0,95,0.00,,,0.00,meteohub,2013-01-29 08:14:00,
2013-01-29 03:19:00,22.6,21.4,30.17,SSE,167,0.0,0.0,95,0.00,,,0.00,meteohub,2013-01-29 08:19:00,
2013-01-29 03:24:00,22.8,21.6,30.17,SSE,167,0.0,0.0,95,0.00,,,0.00,meteohub,2013-01-29 08:24:00,
2013-01-29 03:30:00,23.0,21.7,30.18,SSE,167,0.0,0.0,95,0.00,,,0.00,meteohub,2013-01-29 08:30:00,
2013-01-29 03:35:00,23.0,21.7,30.18,SSE,167,0.0,1.0,95,0.00,,,0.00,meteohub,2013-01-29 08:35:00,
2013-01-29 03:40:00,23.0,21.7,30.18,SSE,167,0.0,1.0,95,0.00,,,0.00,meteohub,2013-01-29 08:40:00,
2013-01-29 03:45:00,23.0,21.7,30.18,SSE,167,0.0,1.0,95,0.00,,,0.00,meteohub,2013-01-29 08:45:00,
2013-01-29 03:50:00,23.2,21.9,30.18,SSE,167,0.0,0.0,95,0.00,,,0.00,meteohub,2013-01-29 08:50:00,
2013-01-29 03:55:00,23.2,21.9,30.18,SSE,167,0.0,0.0,95,0.00,,,0.00,meteohub,2013-01-29 08:55:00,
2013-01-29 04:00:00,23.2,21.9,30.18,SSE,167,0.0,1.0,95,0.00,,,0.00,meteohub,2013-01-29 09:00:00,
2013-01-29 04:05:00,23.2,21.9,30.18,SSE,167,0.0,1.0,95,0.00,,,0.00,meteohub,2013-01-29 09:05:00,
2013-01-29 04:10:00,23.2,21.9,30.18,SSE,167,0.0,1.0,95,0.00,,,0.00,meteohub,2013-01-29 09:10:00,
2013-01-29 04:15:00,23.4,22.1,30.18,SSE,167,0.0,0.0,95,0.00,,,0.00,meteohub,2013-01-29 09:15:00,
2013-01-29 04:20:00,23.4,22.1,30.18,SSE,167,0.0,0.0,95,0.00,,,0.00,meteohub,2013-01-29 09:20:00,
2013-01-29 04:25:00,23.4,22.1,30.19,SSE,167,0.0,0.0,95,0.00,,,0.00,meteohub,2013-01-29 09:25:00,
2013-01-29 04:30:00,23.5,22.3,30.18,SSE,167,0.0,1.0,95,0.00,,,0.00,meteohub,2013-01-29 09:30:00,
2013-01-29 04:35:00,23.5,22.3,30.18,SSE,167,0.0,1.0,95,0.00,,,0.00,meteohub,2013-01-29 09:35:00,
2013-01-29 04:40:00,23.7,22.5,30.19,SSE,167,0.0,1.0,95,0.00,,,0.00,meteohub,2013-01-29 09:40:00,
2013-01-29 04:45:00,23.7,22.5,30.19,SSE,167,0.0,2.0,95,0.00,,,0.00,meteohub,2013-01-29 09:45:00,
2013-01-29 04:50:00,23.5,22.3,30.19,SSE,167,0.0,2.0,95,0.00,,,0.00,meteohub,2013-01-29 09:50:00,
2013-01-29 04:55:00,23.5,22.3,30.18,SSE,167,0.0,2.0,95,0.00,,,0.00,meteohub,2013-01-29 09:55:00,
2013-01-29 05:00:00,23.4,22.1,30.19,SSE,167,0.0,1.0,95,0.00,,,0.00,meteohub,2013-01-29 10:00:00,
2013-01-29 05:05:00,23.5,22.3,30.19,SSE,167,0.0,1.0,95,0.00,,,0.00,meteohub,2013-01-29 10:05:00,
2013-01-29 05:10:00,23.5,22.3,30.20,SSE,167,0.0,0.0,95,0.00,,,0.00,meteohub,2013-01-29 10:10:00,
2013-01-29 05:15:00,23.5,22.3,30.19,SSE,167,0.0,0.0,95,0.00,,,0.00,meteohub,2013-01-29 10:15:00,
2013-01-29 05:20:00,23.7,22.5,30.20,SSE,167,0.0,0.0,95,0.00,,,0.00,meteohub,2013-01-29 10:20:00,
2013-01-29 05:25:00,23.7,22.5,30.20,SSE,167,0.0,0.0,95,0.00,,,0.00,meteohub,2013-01-29 10:25:00,
2013-01-29 05:30:00,23.9,22.6,30.20,SSE,167,0.0,0.0,95,0.00,,,0.00,meteohub,2013-01-29 10:30:00,
2013-01-29 05:35:00,24.1,22.8,30.20,SSE,167,0.0,0.0,95,0.00,,,0.00,meteohub,2013-01-29 10:35:00,
2013-01-29 05:40:00,24.1,23.2,30.20,SSE,167,0.0,0.0,96,0.00,,,0.00,meteohub,2013-01-29 10:40:00,
2013-01-29 05:45:00,24.3,23.0,30.21,SSE,167,0.0,0.0,95,0.00,,,0.00,meteohub,2013-01-29 10:45:00,
2013-01-29 05:50:00,24.3,23.0,30.21,SSE,167,0.0,0.0,95,0.00,,,0.00,meteohub,2013-01-29 10:50:00,
2013-01-29 05:55:00,24.3,23.0,30.21,SSE,167,0.0,0.0,95,0.00,,,0.00,meteohub,2013-01-29 10:55:00,
2013-01-29 06:00:00,24.3,23.0,30.21,SSE,167,0.0,0.0,95,0.00,,,0.00,meteohub,2013-01-29 11:00:00,
2013-01-29 06:05:00,24.4,23.2,30.21,SSE,167,0.0,0.0,95,0.00,,,0.00,meteohub,2013-01-29 11:05:00,
2013-01-29 06:10:00,24.4,23.2,30.21,SSE,167,0.0,0.0,95,0.00,,,0.00,meteohub,2013-01-29 11:10:00,
2013-01-29 06:15:00,24.6,23.4,30.21,SSE,167,0.0,0.0,95,0.00,,,0.00,meteohub,2013-01-29 11:15:00,
2013-01-29 06:20:00,24.6,23.4,30.22,SSE,167,0.0,0.0,95,0.00,,,0.00,meteohub,2013-01-29 11:20:00,
2013-01-29 06:25:00,24.8,23.9,30.21,SSE,167,0.0,1.0,96,0.00,,,0.00,meteohub,2013-01-29 11:25:00,
2013-01-29 06:30:00,25.0,24.1,30.20,SSE,167,0.0,1.0,96,0.00,,,0.00,meteohub,2013-01-29 11:30:00,
2013-01-29 06:35:00,25.0,24.1,30.20,SSE,167,0.0,1.0,96,0.00,,,0.00,meteohub,2013-01-29 11:35:00,
2013-01-29 06:40:00,25.2,24.3,30.21,SSE,167,0.0,0.0,96,0.00,,,0.00,meteohub,2013-01-29 11:40:00,
2013-01-29 06:45:00,25.3,24.4,30.21,SSE,167,0.0,0.0,96,0.00,,,0.00,meteohub,2013-01-29 11:45:00,
2013-01-29 06:50:00,25.5,24.6,30.22,SSE,167,0.0,0.0,96,0.00,,,0.00,meteohub,2013-01-29 11:50:00,
2013-01-29 06:55:00,25.5,24.6,30.22,SSE,167,1.0,1.0,96,0.00,,,0.00,meteohub,2013-01-29 11:55:00,
2013-01-29 07:00:00,25.7,24.8,30.22,SSE,167,0.0,1.0,96,0.00,,,0.00,meteohub,2013-01-29 12:00:00,
2013-01-29 07:05:00,26.1,25.2,30.22,SSE,167,0.0,1.0,96,0.00,,,0.00,meteohub,2013-01-29 12:05:00,
2013-01-29 07:10:00,26.1,25.2,30.22,SSE,167,1.0,1.0,96,0.00,,,0.00,meteohub,2013-01-29 12:10:00,
2013-01-29 07:15:00,25.5,24.3,30.23,SSE,167,0.0,3.0,95,0.00,,,0.00,meteohub,2013-01-29 12:15:00,
2013-01-29 07:21:00,25.2,23.9,30.23,SSE,167,0.0,3.0,95,0.00,,,0.00,meteohub,2013-01-29 12:21:00,
2013-01-29 07:26:00,25.0,23.7,30.24,SSE,167,0.0,3.0,95,0.00,,,0.00,meteohub,2013-01-29 12:26:00,
2013-01-29 07:31:00,25.2,23.9,30.23,SSE,167,0.0,0.0,95,0.00,,,0.00,meteohub,2013-01-29 12:31:00,
2013-01-29 07:36:00,25.3,24.4,30.24,SSE,167,0.0,0.0,96,0.00,,,0.00,meteohub,2013-01-29 12:36:00,
2013-01-29 07:41:00,25.3,24.4,30.24,SSE,167,0.0,1.0,96,0.00,,,0.00,meteohub,2013-01-29 12:41:00,
2013-01-29 07:46:00,25.5,24.6,30.25,SSE,167,0.0,1.0,96,0.00,,,0.00,meteohub,2013-01-29 12:46:00,
2013-01-29 07:51:00,25.5,24.3,30.25,SSE,167,0.0,1.0,95,0.00,,,0.00,meteohub,2013-01-29 12:51:00,
2013-01-29 07:56:00,25.5,24.3,30.25,SSE,167,0.0,0.0,95,0.00,,,0.00,meteohub,2013-01-29 12:56:00,
2013-01-29 08:01:00,25.5,24.3,30.25,SSE,167,0.0,0.0,95,0.00,,,0.00,meteohub,2013-01-29 13:01:00,
2013-01-29 08:06:00,25.7,24.4,30.25,SSE,167,0.0,0.0,95,0.00,,,0.00,meteohub,2013-01-29 13:06:00,
2013-01-29 08:11:00,25.9,25.0,30.26,SSE,167,0.0,0.0,96,0.00,,,0.00,meteohub,2013-01-29 13:11:00,
2013-01-29 08:16:00,26.1,25.2,30.26,SSE,167,0.0,0.0,96,0.00,,,0.00,meteohub,2013-01-29 13:16:00,
2013-01-29 08:21:00,26.2,25.3,30.26,SSE,167,0.0,0.0,96,0.00,,,0.00,meteohub,2013-01-29 13:21:00,
2013-01-29 08:26:00,26.6,25.7,30.26,SSE,167,0.0,0.0,96,0.00,,,0.00,meteohub,2013-01-29 13:26:00,
2013-01-29 08:31:00,27.0,26.1,30.27,SSE,167,0.0,0.0,96,0.00,,,0.00,meteohub,2013-01-29 13:31:00,
2013-01-29 08:36:00,27.1,26.2,30.27,SSE,167,0.0,0.0,96,0.00,,,0.00,meteohub,2013-01-29 13:36:00,
2013-01-29 08:41:00,27.7,26.6,30.27,SSE,167,0.0,0.0,96,0.00,,,0.00,meteohub,2013-01-29 13:41:00,
2013-01-29 08:46:00,27.9,26.8,30.26,SSE,167,0.0,0.0,96,0.00,,,0.00,meteohub,2013-01-29 13:46:00,
2013-01-29 08:51:00,28.0,27.0,30.26,SSE,167,0.0,0.0,96,0.00,,,0.00,meteohub,2013-01-29 13:51:00,
2013-01-29 08:56:00,28.2,27.1,30.26,SSE,167,0.0,0.0,96,0.00,,,0.00,meteohub,2013-01-29 13:56:00,
2013-01-29 09:01:00,28.6,27.5,30.26,SSE,167,0.0,0.0,96,0.00,,,0.00,meteohub,2013-01-29 14:01:00,
2013-01-29 09:06:00,28.8,27.7,30.27,SSE,167,0.0,0.0,96,0.00,,,0.00,meteohub,2013-01-29 14:06:00,
2013-01-29 09:11:00,28.9,27.9,30.26,SSE,167,0.0,0.0,96,0.00,,,0.00,meteohub,2013-01-29 14:11:00,
2013-01-29 09:16:00,29.1,28.0,30.26,SSE,167,0.0,0.0,96,0.00,,,0.00,meteohub,2013-01-29 14:16:00,
2013-01-29 09:21:00,29.1,28.0,30.26,SSE,167,0.0,0.0,96,0.00,,,0.00,meteohub,2013-01-29 14:21:00,
2013-01-29 09:26:00,29.1,28.0,30.26,SSE,167,0.0,0.0,96,0.00,,,0.00,meteohub,2013-01-29 14:26:00,
2013-01-29 09:31:00,29.1,28.0,30.26,SSE,167,0.0,1.0,96,0.00,,,0.00,meteohub,2013-01-29 14:31:00,
2013-01-29 09:36:00,28.8,27.5,30.27,SSE,167,0.0,1.0,95,0.00,,,0.00,meteohub,2013-01-29 14:36:00,
2013-01-29 09:41:00,28.2,26.8,30.26,SSE,167,0.0,2.0,94,0.00,,,0.00,meteohub,2013-01-29 14:41:00,
2013-01-29 09:46:00,28.0,26.8,30.26,SSE,167,0.0,2.0,95,0.00,,,0.00,meteohub,2013-01-29 14:46:00,
2013-01-29 09:51:00,28.0,26.8,30.27,SSE,167,0.0,2.0,95,0.00,,,0.00,meteohub,2013-01-29 14:51:00,
2013-01-29 09:56:00,28.2,27.0,30.27,SSE,167,2.0,2.0,95,0.00,,,0.00,meteohub,2013-01-29 14:56:00,
2013-01-29 10:01:00,28.0,26.6,30.27,SSE,167,0.0,3.0,94,0.00,,,0.00,meteohub,2013-01-29 15:01:00,
2013-01-29 10:06:00,28.2,26.8,30.27,SSE,167,0.0,3.0,94,0.00,,,0.00,meteohub,2013-01-29 15:06:00,
2013-01-29 10:11:00,28.9,27.7,30.27,SSE,167,0.0,3.0,95,0.00,,,0.00,meteohub,2013-01-29 15:11:00,
2013-01-29 10:16:00,29.5,28.2,30.27,SSE,167,0.0,0.0,95,0.00,,,0.00,meteohub,2013-01-29 15:16:00,
2013-01-29 10:21:00,29.8,28.6,30.28,SSE,167,0.0,2.0,95,0.00,,,0.00,meteohub,2013-01-29 15:21:00,
2013-01-29 10:26:00,30.0,28.6,30.28,SSE,167,0.0,2.0,94,0.00,,,0.00,meteohub,2013-01-29 15:26:00,
2013-01-29 10:31:00,29.7,27.9,30.28,SSE,167,0.0,1.0,93,0.00,,,0.00,meteohub,2013-01-29 15:31:00,
2013-01-29 10:36:00,29.3,27.3,30.29,SSE,167,0.0,2.0,92,0.00,,,0.00,meteohub,2013-01-29 15:36:00,
2013-01-29 10:41:00,29.1,27.1,30.29,SSE,167,0.0,2.0,92,0.00,,,0.00,meteohub,2013-01-29 15:41:00,
2013-01-29 10:46:00,29.1,27.1,30.29,SSE,167,0.0,2.0,92,0.00,,,0.00,meteohub,2013-01-29 15:46:00,
2013-01-29 10:51:00,29.1,27.1,30.29,SSE,167,0.0,1.0,92,0.00,,,0.00,meteohub,2013-01-29 15:51:00,
2013-01-29 10:56:00,29.5,27.5,30.29,SSE,167,0.0,1.0,92,0.00,,,0.00,meteohub,2013-01-29 15:56:00,
2013-01-29 11:01:00,29.5,27.1,30.29,SSE,167,1.0,1.0,91,0.00,,,0.00,meteohub,2013-01-29 16:01:00,
2013-01-29 11:06:00,29.1,26.8,30.29,SSE,167,0.0,2.0,91,0.00,,,0.00,meteohub,2013-01-29 16:06:00,
2013-01-29 11:11:00,29.1,26.8,30.28,SSE,167,0.0,2.0,91,0.00,,,0.00,meteohub,2013-01-29 16:11:00,
2013-01-29 11:16:00,29.3,27.0,30.28,SSE,167,0.0,2.0,91,0.00,,,0.00,meteohub,2013-01-29 16:16:00,
2013-01-29 11:21:00,29.7,27.7,30.27,SSE,167,1.0,2.0,92,0.00,,,0.00,meteohub,2013-01-29 16:21:00,
2013-01-29 11:26:00,30.0,28.0,30.27,SSE,167,0.0,2.0,92,0.00,,,0.00,meteohub,2013-01-29 16:26:00,
2013-01-29 11:31:00,30.4,28.6,30.27,SSE,167,2.0,2.0,93,0.01,,,0.01,meteohub,2013-01-29 16:31:00,
2013-01-29 11:36:00,30.4,28.0,30.27,SSE,167,2.0,2.0,91,0.01,,,0.01,meteohub,2013-01-29 16:36:00,
2013-01-29 11:41:00,30.0,27.5,30.27,SSE,167,0.0,3.0,90,0.02,,,0.02,meteohub,2013-01-29 16:41:00,
2013-01-29 11:46:00,29.7,27.1,30.27,SSW,194,1.0,3.0,90,0.02,,,0.02,meteohub,2013-01-29 16:46:00,
2013-01-29 11:51:00,29.7,27.1,30.27,SSW,194,0.0,3.0,90,0.02,,,0.02,meteohub,2013-01-29 16:51:00,
2013-01-29 11:57:00,29.7,27.3,30.27,SSW,194,0.0,3.0,91,0.02,,,0.02,meteohub,2013-01-29 16:57:00,
2013-01-29 12:02:00,29.8,27.5,30.27,SSW,194,0.0,2.0,91,0.02,,,0.02,meteohub,2013-01-29 17:02:00,
2013-01-29 12:07:00,30.0,27.7,30.27,SSW,194,0.0,1.0,91,0.02,,,0.02,meteohub,2013-01-29 17:07:00,
2013-01-29 12:12:00,29.8,27.5,30.27,SSW,194,1.0,1.0,91,0.02,,,0.02,meteohub,2013-01-29 17:12:00,
2013-01-29 12:17:00,29.8,27.5,30.27,SSW,194,2.0,2.0,91,0.03,,,0.03,meteohub,2013-01-29 17:17:00,
2013-01-29 12:22:00,29.8,27.5,30.27,SSW,194,0.0,2.0,91,0.04,,,0.03,meteohub,2013-01-29 17:22:00,
2013-01-29 12:27:00,29.8,27.5,30.26,SSW,194,1.0,2.0,91,0.03,,,0.04,meteohub,2013-01-29 17:27:00,
2013-01-29 12:32:00,29.8,27.5,30.26,SSW,194,1.0,2.0,91,0.03,,,0.04,meteohub,2013-01-29 17:32:00,
2013-01-29 12:37:00,29.8,27.5,30.25,SSE,151,1.0,4.0,91,0.02,,,0.04,meteohub,2013-01-29 17:37:00,
2013-01-29 12:42:00,29.8,27.9,30.24,SE,144,0.0,4.0,92,0.03,,,0.05,meteohub,2013-01-29 17:42:00,
2013-01-29 12:47:00,30.4,28.4,30.24,SE,144,0.0,4.0,92,0.03,,,0.05,meteohub,2013-01-29 17:47:00,
2013-01-29 12:52:00,30.7,28.9,30.25,SE,144,0.0,4.0,93,0.03,,,0.05,meteohub,2013-01-29 17:52:00,
2013-01-29 12:57:00,31.5,29.7,30.25,SE,144,0.0,2.0,93,0.03,,,0.05,meteohub,2013-01-29 17:57:00,
2013-01-29 13:02:00,31.8,29.8,30.25,WSW,248,1.0,2.0,92,0.03,,,0.05,meteohub,2013-01-29 18:02:00,
2013-01-29 13:07:00,32.2,29.8,30.24,WSW,248,0.0,3.0,91,0.03,,,0.05,meteohub,2013-01-29 18:07:00,
2013-01-29 13:12:00,32.4,30.0,30.24,SW,235,1.0,3.0,91,0.03,,,0.05,meteohub,2013-01-29 18:12:00,
2013-01-29 13:17:00,31.8,29.5,30.24,SW,227,1.0,3.0,91,0.02,,,0.05,meteohub,2013-01-29 18:17:00,
2013-01-29 13:22:00,31.5,29.1,30.24,South,182,3.0,3.0,91,0.02,,,0.06,meteohub,2013-01-29 18:22:00,
2013-01-29 13:27:00,31.3,29.3,30.24,South,170,0.0,4.0,92,0.02,,,0.06,meteohub,2013-01-29 18:27:00,
2013-01-29 13:32:00,31.3,29.3,30.23,South,170,0.0,4.0,92,0.03,,,0.07,meteohub,2013-01-29 18:32:00,
2013-01-29 13:37:00,31.5,29.5,30.23,South,170,0.0,4.0,92,0.03,,,0.07,meteohub,2013-01-29 18:37:00,
2013-01-29 13:42:00,31.3,29.3,30.22,South,170,0.0,3.0,92,0.03,,,0.08,meteohub,2013-01-29 18:42:00,
2013-01-29 13:47:00,31.3,29.5,30.22,South,170,0.0,3.0,93,0.03,,,0.08,meteohub,2013-01-29 18:47:00,
2013-01-29 13:52:00,31.6,29.8,30.22,South,170,0.0,3.0,93,0.03,,,0.08,meteohub,2013-01-29 18:52:00,
2013-01-29 13:57:00,31.6,29.8,30.22,South,170,0.0,2.0,93,0.03,,,0.08,meteohub,2013-01-29 18:57:00,
2013-01-29 14:02:00,31.8,30.0,30.22,South,170,0.0,1.0,93,0.04,,,0.09,meteohub,2013-01-29 19:02:00,
2013-01-29 14:07:00,31.6,29.8,30.22,South,170,0.0,1.0,93,0.04,,,0.09,meteohub,2013-01-29 19:07:00,
2013-01-29 14:12:00,31.8,30.0,30.22,South,170,1.0,1.0,93,0.04,,,0.09,meteohub,2013-01-29 19:12:00,
2013-01-29 14:17:00,31.8,30.0,30.22,SSE,164,0.0,3.0,93,0.03,,,0.09,meteohub,2013-01-29 19:17:00,
2013-01-29 14:22:00,31.8,30.0,30.22,SSE,164,1.0,4.0,93,0.03,,,0.09,meteohub,2013-01-29 19:22:00,
2013-01-29 14:27:00,31.8,30.0,30.22,SSE,159,3.0,4.0,93,0.03,,,0.09,meteohub,2013-01-29 19:27:00,
2013-01-29 14:32:00,31.8,30.0,30.22,SSE,148,1.0,4.0,93,0.02,,,0.09,meteohub,2013-01-29 19:32:00,
2013-01-29 14:37:00,31.8,30.4,30.22,ENE,57,1.0,4.0,94,0.02,,,0.09,meteohub,2013-01-29 19:37:00,
2013-01-29 14:42:00,31.8,30.4,30.22,ESE,109,2.0,4.0,94,0.01,,,0.09,meteohub,2013-01-29 19:42:00,
2013-01-29 14:47:00,31.8,30.4,30.22,SSE,155,2.0,5.0,94,0.02,,,0.10,meteohub,2013-01-29 19:47:00,
2013-01-29 14:52:00,31.8,30.4,30.22,SE,128,0.0,5.0,94,0.02,,,0.10,meteohub,2013-01-29 19:52:00,
2013-01-29 14:57:00,31.8,30.4,30.21,SSE,153,0.0,4.0,94,0.01,,,0.10,meteohub,2013-01-29 19:57:00,
2013-01-29 15:02:00,31.8,30.4,30.21,SSE,153,1.0,4.0,94,0.01,,,0.10,meteohub,2013-01-29 20:02:00,
2013-01-29 15:07:00,31.8,30.4,30.22,SSE,153,1.0,4.0,94,0.01,,,0.10,meteohub,2013-01-29 20:07:00,
2013-01-29 15:12:00,31.8,30.4,30.22,SSE,153,0.0,3.0,94,0.01,,,0.10,meteohub,2013-01-29 20:12:00,
2013-01-29 15:17:00,32.0,30.6,30.22,SSE,153,1.0,2.0,94,0.01,,,0.10,meteohub,2013-01-29 20:17:00,
2013-01-29 15:22:00,32.2,30.6,30.21,SSE,165,2.0,4.0,94,0.02,,,0.11,meteohub,2013-01-29 20:22:00,
2013-01-29 15:27:00,32.2,30.6,30.21,SE,145,2.0,4.0,94,0.02,,,0.11,meteohub,2013-01-29 20:27:00,
2013-01-29 15:32:00,32.2,30.6,30.22,East,86,1.0,4.0,94,0.02,,,0.11,meteohub,2013-01-29 20:32:00,
2013-01-29 15:37:00,32.0,30.6,30.22,SE,134,0.0,3.0,94,0.02,,,0.11,meteohub,2013-01-29 20:37:00,
2013-01-29 15:42:00,32.0,30.6,30.22,ESE,119,0.0,3.0,94,0.02,,,0.11,meteohub,2013-01-29 20:42:00,
2013-01-29 15:47:00,32.0,30.6,30.22,ESE,119,0.0,3.0,94,0.01,,,0.11,meteohub,2013-01-29 20:47:00,
2013-01-29 15:52:00,32.2,30.6,30.22,ESE,119,0.0,3.0,94,0.01,,,0.11,meteohub,2013-01-29 20:52:00,
2013-01-29 15:57:00,32.2,30.6,30.22,ESE,119,0.0,2.0,94,0.01,,,0.11,meteohub,2013-01-29 20:57:00,
2013-01-29 16:02:00,32.4,30.7,30.21,SE,139,1.0,2.0,94,0.02,,,0.12,meteohub,2013-01-29 21:02:00,
2013-01-29 16:07:00,32.4,30.7,30.22,SE,130,0.0,4.0,94,0.02,,,0.12,meteohub,2013-01-29 21:07:00,
2013-01-29 16:12:00,32.4,30.7,30.21,SE,130,2.0,4.0,94,0.02,,,0.12,meteohub,2013-01-29 21:12:00,
2013-01-29 16:17:00,32.4,30.7,30.21,ESE,123,1.0,4.0,94,0.01,,,0.12,meteohub,2013-01-29 21:17:00,
2013-01-29 16:22:00,32.5,30.9,30.20,SE,144,2.0,4.0,94,0.01,,,0.12,meteohub,2013-01-29 21:22:00,
2013-01-29 16:27:00,32.5,30.9,30.20,ESE,121,2.0,7.0,94,0.01,,,0.12,meteohub,2013-01-29 21:27:00,
2013-01-29 16:32:00,32.7,31.1,30.19,SE,136,3.0,7.0,94,0.01,,,0.12,meteohub,2013-01-29 21:32:00,
2013-01-29 16:37:00,33.1,31.5,30.20,SE,125,0.0,7.0,94,0.01,,,0.12,meteohub,2013-01-29 21:37:00,
2013-01-29 16:42:00,33.1,31.3,30.20,East,87,6.0,6.0,93,0.01,,,0.12,meteohub,2013-01-29 21:42:00,
2013-01-29 16:47:00,33.1,31.5,30.19,SE,128,2.0,7.0,94,0.01,,,0.12,meteohub,2013-01-29 21:47:00,
2013-01-29 16:52:00,33.3,31.6,30.19,SSE,162,5.0,7.0,94,0.01,,,0.12,meteohub,2013-01-29 21:52:00,
2013-01-29 16:57:00,33.4,31.8,30.20,SSE,147,2.0,7.0,94,0.00,,,0.12,meteohub,2013-01-29 21:57:00,
2013-01-29 17:02:00,33.4,31.6,30.21,SE,145,3.0,7.0,93,0.00,,,0.12,meteohub,2013-01-29 22:02:00,
2013-01-29 17:07:00,33.3,31.5,30.20,SE,146,2.0,7.0,93,0.00,,,0.12,meteohub,2013-01-29 22:07:00,
2013-01-29 17:12:00,33.3,31.5,30.20,SSE,162,0.0,7.0,93,0.00,,,0.12,meteohub,2013-01-29 22:12:00,
2013-01-29 17:17:00,33.3,31.5,30.20,South,184,2.0,5.0,93,0.00,,,0.12,meteohub,2013-01-29 22:17:00,
2013-01-29 17:22:00,33.4,31.6,30.20,SE,133,0.0,5.0,93,0.00,,,0.12,meteohub,2013-01-29 22:22:00,
2013-01-29 17:27:00,33.4,31.8,30.20,SSE,148,3.0,5.0,94,0.01,,,0.13,meteohub,2013-01-29 22:27:00,
2013-01-29 17:32:00,33.6,32.0,30.20,ESE,119,3.0,5.0,94,0.01,,,0.13,meteohub,2013-01-29 22:32:00,
2013-01-29 17:37:00,33.6,31.8,30.20,SSE,168,1.0,8.0,93,0.01,,,0.13,meteohub,2013-01-29 22:37:00,
2013-01-29 17:42:00,33.6,31.8,30.20,ESE,119,0.0,8.0,93,0.01,,,0.13,meteohub,2013-01-29 22:42:00,
2013-01-29 17:47:00,33.4,31.6,30.19,SE,126,3.0,8.0,93,0.01,,,0.13,meteohub,2013-01-29 22:47:00,
2013-01-29 17:52:00,33.4,31.6,30.19,SE,130,2.0,7.0,93,0.01,,,0.13,meteohub,2013-01-29 22:52:00,
2013-01-29 17:57:00,33.3,31.5,30.19,ESE,119,1.0,7.0,93,0.01,,,0.13,meteohub,2013-01-29 22:57:00,
2013-01-29 18:02:00,33.1,31.3,30.18,East,101,5.0,7.0,93,0.01,,,0.13,meteohub,2013-01-29 23:02:00,
2013-01-29 18:07:00,33.1,31.3,30.19,East,92,1.0,8.0,93,0.01,,,0.13,meteohub,2013-01-29 23:07:00,
2013-01-29 18:12:00,33.1,31.5,30.19,ESE,121,2.0,8.0,94,0.01,,,0.13,meteohub,2013-01-29 23:12:00,
2013-01-29 18:17:00,33.3,31.5,30.18,ESE,110,2.0,8.0,93,0.01,,,0.13,meteohub,2013-01-29 23:17:00,
2013-01-29 18:22:00,33.3,31.5,30.18,ESE,113,1.0,5.0,93,0.00,,,0.13,meteohub,2013-01-29 23:22:00,
2013-01-29 18:28:00,33.3,31.5,30.17,ESE,111,1.0,5.0,93,0.00,,,0.13,meteohub,2013-01-29 23:28:00,
2013-01-29 18:33:00,33.3,31.5,30.18,ESE,118,0.0,5.0,93,0.00,,,0.13,meteohub,2013-01-29 23:33:00,
2013-01-29 18:37:00,33.3,31.5,30.18,ESE,118,1.0,5.0,93,0.00,,,0.13,meteohub,2013-01-29 23:37:00,
2013-01-29 18:42:00,33.3,31.5,30.18,East,94,0.0,3.0,93,0.00,,,0.13,meteohub,2013-01-29 23:42:00,
2013-01-29 18:48:00,33.3,31.5,30.18,SSE,163,0.0,3.0,93,0.00,,,0.13,meteohub,2013-01-29 23:48:00,
2013-01-29 18:53:00,33.1,31.3,30.19,ESE,118,0.0,3.0,93,0.00,,,0.13,meteohub,2013-01-29 23:53:00,
2013-01-29 18:58:00,33.1,31.3,30.19,ESE,118,0.0,4.0,93,0.00,,,0.13,meteohub,2013-01-29 23:58:00,
2013-01-29 19:03:00,33.1,31.3,30.19,ESE,118,0.0,4.0,93,0.00,,,0.13,meteohub,2013-01-30 00:03:00,
2013-01-29 19:08:00,33.1,31.5,30.20,ESE,118,0.0,3.0,94,0.00,,,0.00,meteohub,2013-01-30 00:08:00,
2013-01-29 19:13:00,33.1,31.5,30.20,ESE,118,0.0,2.0,94,0.00,,,0.00,meteohub,2013-01-30 00:13:00,
2013-01-29 19:18:00,33.1,31.5,30.20,ESE,117,0.0,2.0,94,0.00,,,0.00,meteohub,2013-01-30 00:18:00,
2013-01-29 19:23:00,33.1,31.8,30.19,ESE,117,1.0,2.0,95,0.00,,,0.00,meteohub,2013-01-30 00:23:00,
2013-01-29 19:28:00,33.1,31.8,30.19,ESE,117,2.0,2.0,95,0.01,,,0.01,meteohub,2013-01-30 00:28:00,
2013-01-29 19:33:00,33.1,32.0,30.19,ESE,117,0.0,3.0,96,0.01,,,0.01,meteohub,2013-01-30 00:33:00,
2013-01-29 19:38:00,33.3,32.2,30.19,ESE,121,1.0,3.0,96,0.01,,,0.01,meteohub,2013-01-30 00:38:00,
2013-01-29 19:43:00,33.4,32.4,30.19,SE,141,0.0,5.0,96,0.01,,,0.01,meteohub,2013-01-30 00:43:00,
2013-01-29 19:48:00,33.4,32.4,30.19,SSE,159,4.0,5.0,96,0.01,,,0.01,meteohub,2013-01-30 00:48:00,
2013-01-29 19:53:00,33.4,32.4,30.18,ESE,116,4.0,8.0,96,0.01,,,0.01,meteohub,2013-01-30 00:53:00,
2013-01-29 19:58:00,33.3,32.2,30.18,ESE,119,2.0,10.0,96,0.01,,,0.01,meteohub,2013-01-30 00:58:00,
2013-01-29 20:03:00,33.1,32.0,30.18,ESE,117,3.0,10.0,96,0.01,,,0.01,meteohub,2013-01-30 01:03:00,
2013-01-29 20:08:00,33.1,32.4,30.17,SSE,166,3.0,10.0,97,0.01,,,0.01,meteohub,2013-01-30 01:08:00,
2013-01-29 20:13:00,33.1,32.4,30.17,SSE,153,4.0,9.0,97,0.01,,,0.01,meteohub,2013-01-30 01:13:00,
2013-01-29 20:19:00,33.1,32.4,30.18,SSE,162,3.0,9.0,97,0.01,,,0.01,meteohub,2013-01-30 01:19:00,
2013-01-29 20:24:00,33.1,32.4,30.18,SSE,148,0.0,9.0,97,0.00,,,0.01,meteohub,2013-01-30 01:24:00,
2013-01-29 20:29:00,33.1,32.4,30.17,ESE,116,0.0,9.0,97,0.00,,,0.01,meteohub,2013-01-30 01:29:00,
2013-01-29 20:34:00,33.3,32.5,30.18,SE,124,2.0,9.0,97,0.00,,,0.01,meteohub,2013-01-30 01:34:00,
2013-01-29 20:39:00,33.3,32.5,30.17,East,98,3.0,8.0,97,0.00,,,0.01,meteohub,2013-01-30 01:39:00,
2013-01-29 20:44:00,33.4,32.7,30.18,East,88,3.0,8.0,97,0.00,,,0.01,meteohub,2013-01-30 01:44:00,
2013-01-29 20:49:00,33.4,32.7,30.18,ESE,107,4.0,8.0,97,0.00,,,0.01,meteohub,2013-01-30 01:49:00,
2013-01-29 20:54:00,33.4,32.7,30.18,East,97,3.0,7.0,97,0.01,,,0.02,meteohub,2013-01-30 01:54:00,
2013-01-29 20:59:00,33.4,32.7,30.18,East,97,1.0,7.0,97,0.01,,,0.02,meteohub,2013-01-30 01:59:00,
2013-01-29 21:04:00,33.4,32.7,30.17,ESE,113,4.0,7.0,97,0.01,,,0.02,meteohub,2013-01-30 02:04:00,
2013-01-29 21:09:00,33.6,32.9,30.17,East,80,5.0,7.0,97,0.01,,,0.02,meteohub,2013-01-30 02:09:00,
2013-01-29 21:14:00,33.6,32.9,30.17,East,83,5.0,7.0,97,0.01,,,0.02,meteohub,2013-01-30 02:14:00,
2013-01-29 21:19:00,33.8,33.1,30.17,ESE,105,2.0,7.0,97,0.01,,,0.02,meteohub,2013-01-30 02:19:00,
2013-01-29 21:24:00,33.8,33.1,30.17,SE,127,2.0,6.0,97,0.01,,,0.02,meteohub,2013-01-30 02:24:00,
2013-01-29 21:29:00,33.6,32.9,30.16,East,94,3.0,6.0,97,0.01,,,0.02,meteohub,2013-01-30 02:29:00,
2013-01-29 21:34:00,33.8,33.1,30.16,SE,124,3.0,6.0,97,0.01,,,0.02,meteohub,2013-01-30 02:34:00,
2013-01-29 21:39:00,33.8,33.1,30.17,SSE,163,4.0,6.0,97,0.01,,,0.02,meteohub,2013-01-30 02:39:00,
2013-01-29 21:44:00,34.0,32.9,30.16,East,101,5.0,6.0,96,0.01,,,0.02,meteohub,2013-01-30 02:44:00,
2013-01-29 21:49:00,34.0,32.9,30.16,SE,132,3.0,8.0,96,0.00,,,0.02,meteohub,2013-01-30 02:49:00,
2013-01-29 21:54:00,34.2,33.1,30.15,ESE,111,3.0,8.0,96,0.00,,,0.02,meteohub,2013-01-30 02:54:00,
2013-01-29 21:59:00,34.2,33.1,30.15,ESE,113,4.0,7.0,96,0.00,,,0.02,meteohub,2013-01-30 02:59:00,
2013-01-29 22:04:00,34.2,33.1,30.15,ESE,121,1.0,7.0,96,0.00,,,0.02,meteohub,2013-01-30 03:04:00,
2013-01-29 22:09:00,34.0,32.9,30.15,SE,124,2.0,7.0,96,0.00,,,0.02,meteohub,2013-01-30 03:09:00,
2013-01-29 22:14:00,34.0,32.9,30.15,East,90,3.0,7.0,96,0.00,,,0.02,meteohub,2013-01-30 03:14:00,
2013-01-29 22:19:00,34.2,33.1,30.15,SE,132,2.0,7.0,96,0.00,,,0.02,meteohub,2013-01-30 03:19:00,
2013-01-29 22:24:00,34.2,33.1,30.15,East,91,1.0,7.0,96,0.01,,,0.03,meteohub,2013-01-30 03:24:00,
2013-01-29 22:29:00,34.2,33.1,30.15,ESE,113,2.0,6.0,96,0.01,,,0.03,meteohub,2013-01-30 03:29:00,
2013-01-29 22:34:00,34.2,33.1,30.16,East,89,1.0,9.0,96,0.01,,,0.03,meteohub,2013-01-30 03:34:00,
2013-01-29 22:39:00,34.2,33.4,30.15,SSE,157,1.0,9.0,97,0.01,,,0.03,meteohub,2013-01-30 03:39:00,
2013-01-29 22:44:00,34.2,33.1,30.15,ESE,111,1.0,9.0,96,0.01,,,0.03,meteohub,2013-01-30 03:44:00,
2013-01-29 22:49:00,34.2,33.4,30.15,ESE,111,0.0,7.0,97,0.01,,,0.03,meteohub,2013-01-30 03:49:00,
2013-01-29 22:54:00,34.2,33.1,30.15,SE,126,1.0,3.0,96,0.01,,,0.03,meteohub,2013-01-30 03:54:00,
2013-01-29 22:59:00,34.0,32.9,30.14,ESE,104,1.0,4.0,96,0.01,,,0.03,meteohub,2013-01-30 03:59:00,
2013-01-29 23:04:00,34.0,33.3,30.14,ESE,103,3.0,4.0,97,0.02,,,0.04,meteohub,2013-01-30 04:04:00,
2013-01-29 23:09:00,34.0,33.3,30.14,East,90,5.0,5.0,97,0.03,,,0.04,meteohub,2013-01-30 04:09:00,
2013-01-29 23:14:00,34.0,33.3,30.14,East,101,1.0,5.0,97,0.03,,,0.05,meteohub,2013-01-30 04:14:00,
2013-01-29 23:19:00,34.0,33.3,30.14,ESE,105,3.0,7.0,97,0.03,,,0.05,meteohub,2013-01-30 04:19:00,
2013-01-29 23:24:00,34.0,33.3,30.14,NE,46,0.0,7.0,97,0.02,,,0.05,meteohub,2013-01-30 04:24:00,
2013-01-29 23:29:00,34.0,33.3,30.14,East,92,5.0,5.0,97,0.03,,,0.06,meteohub,2013-01-30 04:29:00,
2013-01-29 23:35:00,34.3,33.8,30.14,ESE,102,4.0,6.0,98,0.04,,,0.07,meteohub,2013-01-30 04:35:00,
2013-01-29 23:40:00,34.9,34.3,30.14,East,86,5.0,6.0,98,0.04,,,0.07,meteohub,2013-01-30 04:40:00,
2013-01-29 23:45:00,36.0,35.4,30.14,East,88,3.0,7.0,98,0.04,,,0.07,meteohub,2013-01-30 04:45:00,
2013-01-29 23:50:00,35.4,34.9,30.14,NE,54,3.0,7.0,98,0.04,,,0.07,meteohub,2013-01-30 04:50:00,
2013-01-29 23:55:00,35.4,34.9,30.14,East,96,5.0,7.0,98,0.05,,,0.08,meteohub,2013-01-30 04:55:00,